Regional Weather Roundup
Issued by NWS Cleveland, OH

Home | Current Version | Previous Version | Graphics & Text | Print | Product List | Glossary On
Versions: 1 2 3 4 5 6 7 8 9 10 11 12 13 14 15 16 17 18 19 20 21 22 23 24 25 26 27 28 29 30 31 32 33 34 35 36 37 38 39 40 41 42 43 44 45 46 47 48 49 50
000
ASUS41 KCLE 191610
RWRCLE
OHIO REGIONAL WEATHER ROUNDUP
NATIONAL WEATHER SERVICE WILMINGTON, OH
1200 PM EDT SAT AUG 19 2017

NOTE: "FAIR" INDICATES FEW OR NO CLOUDS BELOW 12,000 FEET WITH NO
SIGNIFICANT WEATHER AND/OR OBSTRUCTIONS TO VISIBILITY.

OHZ001>008-015>018-024>027-034-035-043-044-191700-
   NORTHWEST OHIO

CITY           SKY/WX    TMP DP  RH WIND       PRES   REMARKS
DEFIANCE       FAIR      75  62  64 NW13      29.95R
FINDLAY        FAIR      77  63  61 W8        29.94R
TOLEDO EXPRESS PTSUNNY   75  66  73 W9        29.93R
TOLEDO EXEC    FAIR      77  66  68 W9        29.94R
LIMA           FAIR      76  65  68 W10G18    29.96R
$$

OHZ009>014-019>023-028>033-038-089-191700-
   NORTHEAST OHIO

CITY           SKY/WX    TMP DP  RH WIND       PRES   REMARKS
CLE-HOPKINS    FAIR      78  64  61 NW12      29.94S
CLE-LAKEFRONT  FAIR      74  66  76 W10       29.91S
CUY CO. ARPT   MOSUNNY   73  63  68 NW12      29.93S
LORAIN-ELYRIA  FAIR      74  61  63 NW7       29.94R
ASHTABULA      PTSUNNY   73  66  78 W12       29.93R
AKRON-CANTON   FAIR      75  65  70 SW10      29.94R
WOOSTER        FAIR      76  68  76 W6        29.95R
MANSFIELD      FAIR      78  65  63 W6        29.95R
YOUNGSTOWN     FAIR      75  64  68 SW10      29.93S
$$

OHZ042-051>053-060>062-070>072-077>081-191700-
  SOUTHWEST OHIO

CITY           SKY/WX    TMP DP  RH WIND       PRES   REMARKS
CINC-COVINGTON PTSUNNY   78  70  76 SW7       29.98R
CINC-LUNKEN    FAIR      81  70  69 SW5       29.98R
HAMILTON       FAIR      80  69  69 SW6       29.98S
DAYTON         FAIR      80  64  58 W13       29.98R
WRIGHT-PAT AFB MOSUNNY   80  67  64 SW10      29.96S
DAYTON GENERAL FAIR      80  62  54 W6        29.97R
WILMINGTON     FAIR      80  69  69 SW8       29.98R
$$

OHZ036-037-039>041-045>050-054>059-063>069-073>076-082>088-191700-
  CENTRAL AND SOUTHEAST OHIO

CITY           SKY/WX    TMP DP  RH WIND       PRES   REMARKS
COLUMBUS       FAIR      79  67  66 SW8       29.94S
OSU AIRPORT    FAIR      80  69  69 W7        29.95R
BOLTON FIELD   SUNNY     79  66  65 W9        29.96R
RICKENBACK AFB FAIR      80  66  63 W10       29.95R
NEWARK         FAIR      81  65  58 SW7       29.94S
MARION         FAIR      79  65  62 MISG      29.94R
LANCASTER      FAIR      81  65  58 SW10      29.96R
ZANESVILLE     PTSUNNY   80  66  62 SW8       29.95F
NEW PHILLY     FAIR      79  69  71 W6        29.95S
$$




USA.gov is the U.S. government's official web portal to all federal, state and local government web resources and services.